Location: Lafig�re
(44.4503°N, 4.0357°E)
Time: 15:48:40
(UTC+00:00)

USA 186 - Pass Details

Date: 24 September 2020
Orbit: 261 x 425 km, 96.9° (Epoch: 12 October)

Event Time Altitude Azimuth Distance (km) Brightness Sun altitude
Exits shadow 18:11:22 - 94° (E) 1,570 3.9 -7.0°
Reaches altitude 10° 18:11:42 10° 88° (E) 1,509 3.9 -7.0°
Maximum altitude 18:13:00 12° 65° (ENE) 1,404 3.9 -7.3°
Drops below altitude 10° 18:14:18 10° 41° (NE) 1,527 4.3 -7.5°
Sets 18:17:22 0° 10° (N) 2,408 5.6 -8.0°
